Theta_e
310 310 310 310 310 311 311 311 311 311 311 311 311 312 312 312 312 313 313 314 313 312 311 315 316 316 317 320 319 319 320 320 321 321 320 319 319 319 319 318 318 318 318 318 318
310 310 310 311 311 312 312 312 312 312 312 312 312 312 312 313 313 314 314 313 312 312 311 314 317 317 318 320 320 320 321 321 319 318 318 318 318 318 317 318 318 318 318 319 318
310 311 312 312 312 312 312 311 311 311 311 312 312 312 312 312 313 316 313 313 313 312 313 315 317 318 318 319 320 320 320 319 319 319 319 318 317 317 317 315 317 318 317 317 318
312 312 312 312 311 311 311 312 312 313 314 315 316 316 316 315 317 314 314 314 312 312 313 315 316 317 318 319 319 318 319 319 318 318 318 318 318 317 317 317 317 317 317 317 317
312 311 311 311 312 313 314 316 317 318 319 320 320 319 319 316 315 315 314 313 313 313 312 315 316 317 317 318 317 317 318 318 318 317 317 317 317 316 317 316 316 316 317 316 316
310 311 313 315 316 317 317 318 317 317 317 316 315 314 314 316 319 317 314 313 313 312 313 315 316 316 316 316 316 317 316 316 316 316 316 316 316 316 316 316 316 316 316 316 316
316 317 317 316 316 316 316 316 316 316 316 316 315 313 311 315 317 318 316 313 312 312 314 315 315 316 315 316 315 315 314 314 315 316 315 317 315 314 316 316 315 316 316 315 315
316 315 315 316 317 318 318 318 318 319 319 319 318 315 312 314 314 313 314 314 312 312 312 315 315 314 315 315 315 315 314 315 316 317 315 314 314 314 316 316 315 315 315 315 316
316 316 317 318 319 320 321 321 322 322 321 320 316 312 315 312 312 312 312 311 312 311 312 312 313 314 314 314 314 314 314 315 316 318 314 313 315 315 316 316 316 316 316 316 316
317 318 319 320 321 322 323 323 322 322 320 316 312 312 313 313 311 311 312 311 311 311 312 312 313 314 313 313 314 316 316 316 315 316 315 315 314 314 316 316 316 315 316 316 311
319 320 323 323 323 323 322 322 323 322 321 320 321 316 322 318 315 313 311 311 312 313 314 313 313 313 314 314 315 315 314 314 315 315 314 315 315 314 315 315 314 314 315 312 310
321 323 323 322 322 323 322 322 323 321 319 321 321 322 321 318 316 313 313 312 312 314 314 313 314 314 315 315 314 314 314 313 315 315 313 313 313 313 313 313 314 314 313 310 308
323 323 323 322 323 322 323 322 322 320 317 321 319 318 316 316 318 316 314 313 314 315 316 315 317 316 316 315 315 315 315 315 314 313 312 311 312 313 315 314 311 310 308 307 306
323 323 322 322 321 323 322 322 321 319 320 322 315 311 309 312 313 311 313 313 314 316 316 317 312 313 313 313 314 314 314 313 313 312 312 311 311 314 314 310 309 308 306 305 304
325 323 324 322 324 322 323 321 320 317 325 318 310 310 308 311 311 310 310 311 314 314 313 315 312 312 313 313 313 314 311 312 311 311 312 312 312 314 314 311 309 307 305 304 303
324 324 322 321 321 322 321 321 319 322 325 317 311 312 310 309 309 309 310 309 310 312 312 312 311 311 314 313 312 311 310 310 310 311 314 318 318 316 312 311 308 306 305 304 302
323 322 321 320 321 320 320 320 324 325 321 319 314 312 314 312 311 311 312 311 314 316 316 314 312 312 314 314 311 310 311 316 318 315 317 316 317 318 311 310 308 306 304 303 301
320 319 319 318 318 318 320 322 325 321 321 320 318 315 319 315 315 312 315 317 317 316 317 318 316 314 310 313 313 311 314 318 319 319 317 314 316 318 309 308 307 305 304 302 300
318 317 315 314 315 317 319 322 321 320 318 319 321 321 321 321 321 319 318 318 317 317 318 315 316 309 309 309 310 313 315 313 318 315 319 316 314 310 308 307 306 305 302 300 299
313 310 310 313 311 315 318 319 318 316 317 319 320 318 317 318 318 317 315 314 312 310 312 315 317 316 310 309 308 309 308 314 314 316 310 312 312 313 311 309 306 303 301 300 298
312 309 309 310 310 313 316 315 315 314 315 317 317 318 316 314 313 314 315 315 315 310 311 315 316 314 314 312 314 310 311 309 310 312 314 314 311 309 309 307 303 300 299 298 297
308 307 306 307 311 311 312 311 310 310 310 312 312 313 313 312 312 312 313 312 314 312 313 313 314 313 312 310 309 310 311 311 313 314 310 312 312 304 303 301 301 301 299 297 296
305 306 305 309 310 310 310 310 310 310 310 311 312 312 311 312 312 311 311 311 312 312 313 312 311 310 308 307 310 311 310 310 311 310 312 314 313 307 302 301 302 303 300 297 295
303 305 305 308 309 310 310 310 310 309 310 310 310 310 311 311 310 309 309 312 309 309 309 308 310 307 305 306 307 306 306 306 306 310 308 308 307 305 304 303 302 303 302 296 294
303 302 305 306 307 308 308 308 309 309 309 308 309 309 309 308 308 308 308 307 307 305 307 307 306 306 306 306 304 303 303 305 305 304 304 303 302 303 303 300 296 294 293 293 293
300 300 302 303 305 307 307 306 307 306 307 307 307 306 306 307 307 303 303 305 305 302 304 302 297 299 295 301 302 302 301 301 301 301 301 301 301 301 297 296 296 295 293 292 291
297 298 301 302 303 306 306 305 306 306 305 304 304 304 305 303 301 300 301 300 301 301 300 300 297 292 292 299 297 293 297 299 299 299 299 298 298 293 295 294 293 292 292 292 292
Wind_Speed
4 3 3 4 5 6 7 7 7 8 8 9 10 11 13 13 15 17 17 10 11 9 8 6 5 2 1 3 4 3 3 4 7 5 4 8 2 1 5 11 16 11 13 17 18
6 6 6 6 6 6 7 8 9 9 10 11 11 12 13 15 17 16 7 6 3 2 5 4 2 4 5 4 3 3 3 5 7 9 7 18 14 14 13 16 21 21 20 23 20
8 8 8 9 9 9 9 10 10 11 11 12 13 13 13 14 15 2 2 2 3 2 2 4 6 7 10 9 7 5 4 7 14 22 10 10 16 17 18 9 21 25 26 23 16
10 10 10 11 11 11 11 12 12 13 13 13 13 13 13 10 5 3 3 5 7 7 7 7 7 7 5 6 12 8 14 16 17 15 6 6 14 16 24 26 27 29 28 28 27
12 12 12 11 11 11 11 12 12 13 14 14 13 13 12 5 9 15 14 14 13 11 8 8 9 11 7 7 12 7 13 18 18 16 16 17 17 13 33 32 30 31 27 23 21
12 11 10 10 10 10 11 12 13 13 14 14 13 13 10 7 11 14 12 8 7 7 7 11 5 7 13 11 10 12 15 15 19 25 27 16 14 11 29 24 22 24 25 23 20
12 11 10 9 8 9 11 11 12 12 12 13 12 11 12 15 14 13 13 11 9 8 9 9 12 7 7 6 7 10 6 10 18 18 8 8 4 11 25 21 15 16 21 25 22
11 10 9 8 7 8 10 10 11 11 11 12 11 9 8 10 12 10 11 13 11 9 11 13 13 10 9 10 9 7 6 5 7 10 4 7 6 12 17 19 23 32 33 27 29
10 9 9 8 8 8 11 12 11 12 11 10 7 6 5 5 4 4 4 4 5 7 10 9 6 6 9 4 5 7 5 10 10 13 5 6 5 8 19 26 25 34 29 27 22
10 9 9 8 8 10 12 12 12 10 7 4 4 4 5 4 6 5 3 4 3 4 2 4 5 3 3 4 5 7 10 11 11 8 11 11 11 9 16 25 32 24 23 21 25
12 10 9 9 9 10 9 6 6 3 3 7 9 12 13 11 11 7 3 5 6 4 4 8 3 6 10 11 11 4 8 11 11 10 12 13 11 12 21 25 28 27 21 26 25
13 12 9 10 10 6 5 1 3 3 9 17 23 21 15 15 5 5 5 7 6 6 10 3 6 11 7 7 8 8 10 11 8 7 8 10 13 17 20 17 14 15 25 27 23
15 14 11 9 5 4 3 2 2 4 5 7 7 5 4 6 4 5 8 5 5 7 8 10 7 12 8 8 10 11 9 9 7 7 8 8 7 8 8 11 27 31 28 27 23
17 16 11 7 5 3 4 3 3 9 4 7 4 3 2 4 4 4 9 5 4 5 4 7 3 1 4 7 6 8 7 3 6 5 3 7 5 4 14 14 15 21 24 21 18
20 15 13 10 5 4 5 4 5 3 4 4 4 4 4 3 4 1 7 3 6 6 3 2 7 6 6 6 2 6 2 3 5 5 5 7 4 5 7 11 10 14 18 16 15
19 17 13 12 12 13 8 5 4 2 7 4 5 5 4 5 4 4 2 2 2 2 5 9 1 3 5 6 2 5 3 8 8 4 2 1 1 4 3 11 6 13 14 12 12
18 15 14 13 11 10 10 5 3 5 3 5 3 4 5 5 5 6 5 4 4 3 5 5 8 5 5 2 4 3 4 4 2 1 5 7 3 4 5 5 14 16 16 12 11
16 14 14 14 12 10 12 3 8 4 8 3 2 4 4 7 6 7 4 7 10 11 1 4 3 1 2 2 2 6 2 3 5 3 3 7 5 5 6 18 23 22 17 13 12
17 15 14 12 11 13 8 6 5 8 3 5 5 5 8 10 5 3 6 10 2 1 4 2 4 4 4 3 1 2 3 2 2 1 1 5 6 2 9 9 16 18 16 13 10
10 5 6 10 11 12 3 6 6 2 2 4 8 7 6 4 6 7 6 4 3 5 4 3 4 2 3 2 2 2 1 2 2 3 5 6 4 7 5 11 9 10 13 10 7
8 4 7 11 10 5 5 6 11 16 5 5 7 11 7 5 5 5 3 4 5 4 4 5 0 2 0 4 4 0 2 2 1 3 4 8 6 7 9 8 10 10 6 3 3
11 3 5 19 7 6 8 4 6 6 9 5 4 5 6 5 6 9 9 6 9 9 6 5 3 4 8 7 8 5 7 8 7 6 4 11 15 10 11 10 12 5 6 7 3
8 7 7 23 5 11 6 8 9 5 9 5 7 8 3 6 4 7 7 11 8 4 1 3 2 2 7 3 5 5 1 1 5 1 6 8 4 6 14 12 11 16 11 7 7
8 3 6 20 17 5 13 13 12 11 12 13 3 5 4 6 5 2 2 3 7 6 7 4 2 5 6 8 9 5 8 8 3 5 9 14 18 22 17 9 8 8 11 10 7
13 4 8 5 11 12 6 5 16 10 9 7 4 10 7 5 8 12 9 5 9 8 5 1 5 4 10 11 8 5 11 18 13 15 12 24 22 23 17 8 6 5 4 1 3
6 5 6 3 17 14 15 8 12 6 8 8 9 4 10 11 5 2 3 2 2 4 3 2 3 4 6 5 10 14 21 17 19 19 20 20 23 16 7 4 3 2 4 0 3
12 10 6 8 4 10 14 16 7 7 5 3 1 2 4 4 11 9 3 4 1 3 5 6 4 2 6 1 4 7 16 19 18 19 19 18 15 1 2 2 5 5 4 8 10
Wind_Direction
287 299 309 319 325 328 328 329 329 327 325 324 324 325 325 325 324 316 310 287 290 286 261 250 249 278 228 242 257 293 292 271 279 319 285 122 161 288 262 276 283 265 258 272 283
286 293 300 303 305 308 311 314 315 316 317 318 318 319 321 323 323 315 307 311 282 258 231 232 236 227 235 212 200 232 239 266 325 337 332 327 332 321 317 289 288 291 284 269 258
281 289 295 299 303 305 307 306 306 308 310 311 313 316 319 326 328 267 331 43 49 62 164 214 232 236 246 258 212 208 222 280 312 321 340 328 304 298 285 277 271 280 301 307 292
284 288 291 296 301 303 303 303 305 307 308 309 310 311 314 321 302 309 286 287 300 296 270 222 219 214 233 244 232 258 255 270 287 287 305 277 294 302 284 271 269 277 285 289 288
281 286 291 296 300 301 301 303 305 305 305 306 304 303 307 298 257 272 281 282 278 276 246 205 223 231 253 265 302 263 261 266 287 300 283 281 272 278 283 277 274 277 285 284 285
275 279 284 290 296 299 300 304 306 307 306 304 300 296 287 240 264 269 275 271 254 240 229 208 227 264 287 281 267 296 328 307 285 276 271 260 264 288 280 289 284 283 280 286 283
270 275 279 283 288 295 300 305 309 310 309 305 300 290 268 269 261 266 273 273 255 235 223 239 244 250 307 313 328 328 318 288 274 271 243 214 307 238 273 292 330 298 283 288 289
259 261 263 267 278 290 299 306 312 311 308 302 294 277 253 267 265 269 266 269 260 242 233 223 233 250 256 275 301 273 256 280 272 267 130 120 257 285 309 323 316 298 287 290 296
247 250 255 263 276 294 306 309 310 309 305 296 279 243 263 283 274 288 267 219 274 231 229 242 224 230 276 234 288 230 254 265 284 280 140 169 236 262 284 282 285 281 292 299 295
240 245 253 266 290 304 309 310 310 302 292 290 247 249 257 263 276 275 283 217 161 167 116 166 208 226 234 222 236 279 296 311 305 315 313 297 267 257 295 301 280 295 301 308 77
235 241 251 277 297 306 317 334 328 313 290 251 287 275 299 266 279 279 221 162 130 182 208 187 209 209 230 239 260 318 314 302 300 303 289 280 305 314 290 272 291 293 284 96 81
239 243 258 289 297 302 316 49 286 289 304 276 268 262 262 264 270 272 166 172 186 213 212 135 227 239 279 329 308 292 289 286 277 300 349 321 301 284 282 270 287 58 72 84 74
241 242 256 283 281 286 236 267 299 314 257 291 225 229 220 250 245 166 180 195 200 230 236 214 257 331 302 293 274 271 264 293 323 340 291 303 276 259 284 71 78 72 71 67 65
247 253 249 244 286 254 242 251 297 324 271 190 175 188 155 153 199 233 198 202 209 244 252 253 106 176 258 259 259 290 279 354 307 341 257 38 282 331 275 89 77 71 70 68 70
243 237 242 223 207 218 234 259 305 337 290 122 146 171 165 213 149 97 164 174 241 185 214 213 165 184 223 230 201 232 88 250 241 233 299 249 254 245 200 120 104 88 82 76 70
225 215 218 238 232 229 231 233 294 215 240 135 134 168 184 182 170 132 143 199 320 315 226 259 93 229 215 225 237 4 300 261 251 218 263 51 311 325 59 145 118 109 102 96 85
208 220 226 214 202 223 200 169 218 233 150 156 168 170 231 167 167 191 171 190 218 220 214 192 206 237 212 239 130 112 299 307 286 135 208 63 13 236 115 129 149 132 119 100 77
208 209 201 204 206 190 168 186 213 233 244 93 132 184 215 152 222 188 238 236 226 238 230 240 316 101 113 244 31 184 265 169 267 311 304 8 254 245 129 90 105 115 113 99 77
186 187 198 206 194 184 163 218 206 208 313 219 173 243 213 219 203 244 249 265 210 138 196 277 217 166 152 71 14 103 208 12 89 15 221 232 279 10 102 105 115 115 100 85 74
175 170 225 204 192 182 205 231 236 298 48 320 214 234 264 237 180 190 209 96 88 41 23 36 296 24 72 106 251 209 354 41 57 237 242 253 281 264 176 151 118 95 88 83 80
190 159 212 212 192 176 229 226 242 254 179 218 236 254 273 283 283 273 241 117 138 127 41 103 182 249 269 178 194 255 232 195 154 216 252 273 263 69 54 94 97 88 95 141 166
168 179 173 169 156 203 228 214 265 226 263 246 287 280 260 265 266 252 247 258 111 129 157 177 189 236 240 301 313 263 269 271 253 258 244 254 258 112 99 101 125 166 220 233 230
176 178 168 171 206 218 226 225 230 210 209 198 225 217 228 236 235 240 246 66 88 117 105 114 218 265 316 277 45 77 242 222 281 253 237 269 262 136 145 160 191 236 231 233 225
163 167 170 200 225 251 220 229 215 217 236 225 259 262 235 237 261 238 217 117 97 101 99 63 184 185 224 264 333 296 294 272 166 274 289 271 285 290 293 315 337 227 237 201 215
180 222 186 192 217 227 261 274 224 202 216 219 234 235 215 227 239 239 232 204 127 131 104 5 247 220 255 272 300 290 275 272 270 259 255 272 280 276 290 317 109 125 136 170 257
191 182 181 295 200 202 213 231 231 260 165 202 231 251 217 234 205 212 66 84 143 136 137 92 265 33 284 260 263 267 262 267 267 264 264 265 267 284 341 84 179 173 153 335 319
208 190 157 190 198 193 210 222 224 198 189 244 268 43 157 6 71 90 99 10 41 143 170 168 160 145 255 65 356 301 249 247 254 260 264 268 273 13 271 107 70 45 325 289 288